Lugano, Switzerland

7:54 PM CET on February 27, 2017 (GMT +0100)
Lugano

Weather History for LSZA - January, 2013

Change the Weather History Date:

Friday, January 4, 2013

  Actual Average Record
Temperature  
Mean Temperature 48 °F -  
Max Temperature 65 °F 42 °F 65 °F (2013)
Min Temperature 30 °F 32 °F 21 °F (2009)
Degree Days  
Heating Degree Days 18    
Moisture  
Dew Point 34 °F    
Average Humidity 78    
Maximum Humidity 100    
Minimum Humidity 19    
Precipitation  
Precipitation 0.00 in 0.10 in - ()
Sea Level Pressure  
Sea Level Pressure 30.40 in    
Wind  
Wind Speed 3 mph ()    
Max Wind Speed 9 mph    
Max Gust Speed -    
Visibility 6.2 miles    
Events      
Averages and records for this station are not official NWS values.
T = Trace of Precipitation, MM = Missing Value Source: Averaged Metar Reports

Daily Weather History Graph

Daily Weather History Graph

Search for Another Location

Airport or City:

Trip Planner

Search our weather history database for the weather conditions in past years. The results will help you decide how hot, cold, wet, or windy it might be!

Date:

Astronomy

Jan. 04, 2013 Rise Set
Actual Time 8:05 AM CET 4:52 PM CET
Civil Twilight 7:31 AM CET 5:26 PM CET
Nautical Twilight 6:54 AM CET 6:04 PM CET
Astronomical Twilight 6:17 AM CET 6:40 PM CET
Moon No Moon Rise 11:15 AM CET (1/4)
Length of Visible Light 9h 55m
Length of Day
8h 46m
Waning Gibbous, 58% of the Moon is Illuminated
Jan 4
Waning Gibbous
Jan 5
Last Quarter
Jan 11
New
Jan 19
First Quarter
Jan 27
Full

Hourly Weather History & Observations

Time (CET) Temp. Windchill Dew Point Humidity Pressure Visibility Wind Dir Wind Speed Gust Speed Precip Events Conditions
12:00 AM 37 °F - 30 °F 68% 30.56 in - NNW 3.5 mph - -  
12:20 AM 30.2 °F 26.7 °F 28.4 °F 93% 30.51 in - North 3.5 mph - N/A   Clear
12:50 AM 30.2 °F 24.3 °F 28.4 °F 93% 30.51 in - North 5.8 mph - N/A   Clear
1:20 AM 32.0 °F - 30.2 °F 93% 30.48 in - Variable 2.3 mph - N/A   Clear
1:50 AM 30.2 °F - 28.4 °F 93% 30.48 in - Variable 2.3 mph - N/A   Clear
2:00 AM 36 °F - 31 °F 73% 30.53 in - North 4.6 mph - -  
2:20 AM 30.2 °F 26.7 °F 28.4 °F 93% 30.48 in - Variable 3.5 mph - N/A   Clear
2:50 AM 30.2 °F - 28.4 °F 93% 30.48 in - Variable 2.3 mph - N/A   Clear
3:00 AM 38 °F - 31 °F 68% 30.52 in - North 2.3 mph - -  
3:20 AM 30.2 °F - 28.4 °F 93% 30.48 in - Variable 2.3 mph - N/A   Clear
3:50 AM 30.2 °F - 28.4 °F 93% 30.45 in 6.2 mi Variable 1.2 mph - N/A   Partly Cloudy
4:20 AM 30.2 °F - 30.2 °F 100% 30.45 in 6.2 mi Variable 1.2 mph - N/A   Partly Cloudy
4:50 AM 30.2 °F - 30.2 °F 100% 30.45 in 6.2 mi North 2.3 mph - N/A   Scattered Clouds
5:00 AM 37 °F - 32 °F 75% 30.49 in - North 2.3 mph - -  
5:20 AM 30.2 °F - 30.2 °F 100% 30.45 in - Variable 2.3 mph - N/A   Clear
5:50 AM 30.2 °F - 30.2 °F 100% 30.42 in - Variable 2.3 mph - N/A   Clear
6:00 AM 38 °F - 33 °F 75% 30.47 in - North 2.3 mph - -  
6:20 AM 30.2 °F - 30.2 °F 100% 30.42 in - Variable 2.3 mph - N/A   Clear
6:50 AM 32.0 °F - 30.2 °F 93% 30.42 in 6.2 mi Variable 2.3 mph - N/A   Partly Cloudy
7:20 AM 32.0 °F - 30.2 °F 93% 30.42 in - Variable 1.2 mph - N/A   Clear
7:50 AM 32.0 °F 28.7 °F 30.2 °F 93% 30.42 in - Variable 3.5 mph - N/A   Clear
8:00 AM 39 °F - 34 °F 74% 30.45 in - North 2.3 mph - -  
8:20 AM 32.0 °F 27.5 °F 32.0 °F 100% 30.42 in - North 4.6 mph - N/A   Clear
8:50 AM 32.0 °F - 32.0 °F 100% 30.42 in - Variable 1.2 mph - N/A   Clear
9:00 AM 39 °F - 35 °F 79% 30.47 in - South 2.3 mph - -  
9:20 AM 32.0 °F - 32.0 °F 100% 30.42 in - Variable 1.2 mph - N/A   Clear
9:50 AM 35.6 °F 32.8 °F 33.8 °F 93% 30.42 in - Variable 3.5 mph - N/A   Clear
10:20 AM 39.2 °F - 33.8 °F 81% 30.42 in - Variable 1.2 mph - N/A   Clear
10:50 AM 42.8 °F - 35.6 °F 76% 30.42 in - Variable 2.3 mph - N/A   Clear
11:00 AM 44 °F - 37 °F 70% 30.46 in - South 1.2 mph - -  
11:20 AM 44.6 °F - 35.6 °F 71% 30.42 in 6.2 mi Variable 1.2 mph - N/A   Partly Cloudy
11:50 AM 48.2 °F - 37.4 °F 66% 30.42 in 6.2 mi Variable 1.2 mph - N/A   Partly Cloudy
12:00 PM 46 °F - 40 °F 72% 30.45 in - SE 2.3 mph - -  
12:20 PM 48.2 °F - 37.4 °F 66% 30.42 in 6.2 mi South 4.6 mph - N/A   Partly Cloudy
12:50 PM 51.8 °F - 37.4 °F 58% 30.39 in 6.2 mi Variable 3.5 mph - N/A   Partly Cloudy
1:20 PM 53.6 °F - 37.4 °F 54% 30.39 in 6.2 mi SSW 2.3 mph - N/A   Partly Cloudy
1:50 PM 55.4 °F - 41.0 °F 58% 30.36 in 6.2 mi Variable 1.2 mph - N/A   Partly Cloudy
2:00 PM 61 °F - 38 °F 30% 30.36 in - NNE 9.2 mph - -  
2:20 PM 55.4 °F - 39.2 °F 54% 30.36 in 6.2 mi South 3.5 mph - N/A   Partly Cloudy
2:50 PM 55.4 °F - 39.2 °F 54% 30.36 in 6.2 mi South 3.5 mph - N/A   Partly Cloudy
3:00 PM 65 °F - 33 °F 19% 30.34 in - NE 8.1 mph - -  
3:20 PM 57.2 °F - 41.0 °F 55% 30.36 in 6.2 mi Variable 1.2 mph - N/A   Partly Cloudy
3:50 PM 55.4 °F - 41.0 °F 58% 30.33 in 6.2 mi Variable 1.2 mph - N/A   Partly Cloudy
4:20 PM 51.8 °F - 42.8 °F 71% 30.33 in 6.2 mi Variable 1.2 mph - N/A   Partly Cloudy
4:50 PM 48.2 °F - 41.0 °F 76% 30.33 in 6.2 mi Variable 2.3 mph - N/A   Partly Cloudy
5:00 PM 59 °F - 33 °F 25% 30.35 in - NNE 4.6 mph - -  
5:20 PM 46.4 °F - 41.0 °F 81% 30.33 in - Variable 1.2 mph - N/A   Clear
5:50 PM 42.8 °F - 39.2 °F 87% 30.36 in - Variable 2.3 mph - N/A   Clear
6:00 PM 59 °F - 32 °F 24% 30.35 in - NNE 4.6 mph - -  
6:20 PM 42.8 °F - 39.2 °F 87% 30.36 in - Variable 2.3 mph - N/A   Clear
6:50 PM 42.8 °F 41.1 °F 37.4 °F 81% 30.36 in - Variable 3.5 mph - N/A   Clear
7:20 PM 41.0 °F - 37.4 °F 87% 30.36 in - Variable 2.3 mph - N/A   Clear
7:50 PM 41.0 °F - 37.4 °F 87% 30.36 in - Variable 2.3 mph - N/A   Clear
8:00 PM 52 °F - 34 °F 39% 30.36 in - North 4.6 mph - -  
8:20 PM 39.2 °F - 37.4 °F 93% 30.33 in - Variable 1.2 mph - N/A   Clear
8:50 PM 37.4 °F - 35.6 °F 93% 30.33 in - Variable 1.2 mph - N/A   Clear
9:00 PM 49 °F - 38 °F 57% 30.35 in - WNW 1.2 mph - -  
9:20 PM 39.2 °F - 37.4 °F 93% 30.33 in - Variable 1.2 mph - N/A   Clear
9:50 PM 39.2 °F - 37.4 °F 93% 30.33 in - Variable 1.2 mph - N/A   Clear
10:20 PM 37.4 °F - 33.8 °F 87% 30.33 in - Variable 2.3 mph - N/A   Clear
10:50 PM 35.6 °F - 33.8 °F 93% 30.33 in - Variable 2.3 mph - N/A   Clear
11:00 PM 46 °F - 39 °F 69% 30.35 in - North 3.5 mph - -  
11:20 PM 35.6 °F - 33.8 °F 93% 30.30 in - Variable 1.2 mph - N/A   Clear
11:50 PM 35.6 °F - 33.8 °F 93% 30.30 in - Variable 2.3 mph - N/A   Clear